QPF
0.01 0.00 0.01 0.03 0.07 0.07 0.04 0.03 0.01 0.01 0.00 0.00 0.01 0.00 0.01 0.02 0.04 0.06 0.05 0.03 0.04 0.04 0.02 0.02 0.02 0.01 0.02 0.04 0.06 0.08 0.08 0.08 0.11 0.10 0.09 0.10 0.09 0.08 0.07 0.06 0.06 0.04 0.04 0.05 0.05 0.04 0.03 0.02 0.03
0.00 0.00 0.01 0.03 0.06 0.06 0.04 0.03 0.02 0.00 0.00 0.00 0.00 0.01 0.01 0.00 0.01 0.02 0.04 0.02 0.03 0.04 0.02 0.01 0.02 0.01 0.02 0.03 0.05 0.07 0.09 0.08 0.07 0.09 0.10 0.10 0.09 0.08 0.06 0.05 0.03 0.02 0.04 0.04 0.04 0.03 0.02 0.03 0.03
0.00 0.00 0.01 0.02 0.02 0.03 0.03 0.02 0.01 0.00 0.00 0.00 0.00 0.00 0.00 0.01 0.01 0.01 0.01 0.00 0.01 0.01 0.01 0.01 0.02 0.02 0.03 0.03 0.03 0.04 0.05 0.06 0.06 0.08 0.08 0.07 0.07 0.07 0.07 0.06 0.04 0.02 0.04 0.03 0.04 0.03 0.02 0.03 0.04
0.00 0.01 0.01 0.01 0.02 0.02 0.01 0.01 0.00 0.00 0.00 0.00 0.00 0.00 0.00 0.00 0.00 0.01 0.00 0.00 0.01 0.01 0.00 0.01 0.01 0.02 0.04 0.04 0.03 0.03 0.03 0.02 0.02 0.04 0.04 0.03 0.03 0.03 0.04 0.05 0.05 0.03 0.03 0.03 0.04 0.04 0.03 0.02 0.02
0.00 0.02 0.02 0.02 0.03 0.01 0.01 0.00 0.00 0.01 0.00 0.00 0.00 0.01 0.01 0.01 0.00 0.00 0.00 0.01 0.01 0.01 0.01 0.00 0.01 0.02 0.03 0.04 0.04 0.04 0.04 0.03 0.03 0.02 0.03 0.03 0.04 0.05 0.06 0.04 0.04 0.03 0.03 0.04 0.04 0.05 0.03 0.01 0.02
0.02 0.02 0.03 0.03 0.03 0.01 0.00 0.00 0.00 0.00 0.00 0.00 0.00 0.00 0.02 0.01 0.00 0.00 0.00 0.00 0.01 0.01 0.00 0.00 0.01 0.02 0.03 0.03 0.03 0.04 0.03 0.03 0.03 0.03 0.03 0.03 0.04 0.06 0.06 0.04 0.03 0.03 0.04 0.04 0.04 0.04 0.03 0.02 0.02
0.02 0.03 0.03 0.02 0.02 0.01 0.00 0.00 0.00 0.00 0.00 0.00 0.00 0.01 0.02 0.01 0.01 0.00 0.01 0.01 0.00 0.01 0.02 0.01 0.01 0.02 0.03 0.03 0.03 0.03 0.03 0.03 0.04 0.04 0.04 0.03 0.04 0.05 0.05 0.04 0.04 0.04 0.04 0.04 0.04 0.04 0.03 0.02 0.02
0.00 0.01 0.02 0.01 0.01 0.01 0.00 0.00 0.00 0.00 0.01 0.00 0.00 0.01 0.02 0.02 0.00 0.00 0.01 0.00 0.00 0.00 0.01 0.02 0.01 0.01 0.02 0.03 0.02 0.03 0.03 0.04 0.04 0.05 0.05 0.05 0.05 0.05 0.04 0.04 0.04 0.04 0.03 0.03 0.03 0.03 0.02 0.01 0.02
0.00 0.02 0.02 0.01 0.01 0.01 0.00 0.00 0.00 0.00 0.00 0.00 0.00 0.00 0.01 0.00 0.00 0.01 0.01 0.01 0.01 0.01 0.01 0.01 0.01 0.01 0.01 0.02 0.02 0.02 0.02 0.03 0.04 0.04 0.04 0.05 0.08 0.09 0.07 0.04 0.04 0.03 0.03 0.03 0.02 0.02 0.01 0.01 0.02
0.00 0.02 0.02 0.00 0.00 0.00 0.00 0.00 0.00 0.00 0.00 0.00 0.00 0.01 0.00 0.00 0.00 0.01 0.01 0.01 0.01 0.01 0.01 0.01 0.01 0.01 0.01 0.01 0.02 0.02 0.02 0.03 0.04 0.03 0.03 0.05 0.06 0.08 0.05 0.04 0.04 0.04 0.04 0.03 0.02 0.02 0.03 0.03 0.03
0.00 0.01 0.01 0.00 0.00 0.00 0.00 0.00 0.00 0.00 0.00 0.01 0.01 0.01 0.00 0.00 0.00 0.00 0.00 0.00 0.00 0.01 0.00 0.00 0.00 0.01 0.00 0.01 0.02 0.02 0.03 0.04 0.05 0.04 0.03 0.05 0.05 0.06 0.05 0.04 0.05 0.05 0.04 0.04 0.03 0.05 0.06 0.05 0.04
0.00 0.00 0.00 0.00 0.00 0.00 0.00 0.00 0.00 0.00 0.00 0.00 0.00 0.00 0.00 0.00 0.00 0.00 0.00 0.00 0.00 0.00 0.00 0.00 0.00 0.00 0.01 0.01 0.01 0.01 0.03 0.04 0.04 0.04 0.04 0.04 0.05 0.06 0.05 0.06 0.06 0.05 0.06 0.05 0.05 0.07 0.06 0.04 0.04
0.00 0.00 0.00 0.00 0.00 0.00 0.00 0.00 0.00 0.00 0.00 0.00 0.00 0.00 0.00 0.00 0.00 0.00 0.00 0.00 0.00 0.00 0.00 0.00 0.00 0.00 0.01 0.01 0.02 0.01 0.03 0.04 0.05 0.05 0.05 0.04 0.04 0.03 0.03 0.04 0.04 0.03 0.03 0.04 0.06 0.06 0.04 0.03 0.03
0.00 0.00 0.00 0.00 0.00 0.00 0.00 0.01 0.00 0.00 0.00 0.00 0.00 0.00 0.00 0.00 0.00 0.00 0.00 0.00 0.00 0.01 0.00 0.00 0.00 0.00 0.01 0.01 0.02 0.02 0.02 0.04 0.05 0.04 0.02 0.02 0.02 0.02 0.03 0.03 0.02 0.02 0.02 0.03 0.04 0.03 0.02 0.02 0.02
0.00 0.00 0.00 0.00 0.00 0.00 0.00 0.01 0.01 0.00 0.00 0.00 0.00 0.00 0.00 0.00 0.00 0.00 0.00 0.00 0.01 0.01 0.00 0.00 0.00 0.01 0.02 0.02 0.02 0.01 0.01 0.03 0.04 0.03 0.02 0.02 0.02 0.02 0.04 0.04 0.04 0.02 0.01 0.02 0.02 0.03 0.02 0.01 0.01
0.00 0.00 0.00 0.00 0.00 0.00 0.01 0.02 0.01 0.01 0.00 0.00 0.00 0.00 0.00 0.00 0.00 0.00 0.00 0.00 0.01 0.02 0.01 0.00 0.00 0.01 0.03 0.02 0.03 0.03 0.02 0.03 0.04 0.04 0.02 0.02 0.03 0.03 0.04 0.04 0.03 0.02 0.02 0.02 0.02 0.04 0.03 0.02 0.01
0.00 0.00 0.00 0.00 0.00 0.00 0.00 0.02 0.01 0.01 0.00 0.01 0.00 0.00 0.00 0.00 0.00 0.01 0.00 0.00 0.00 0.01 0.01 0.00 0.01 0.01 0.02 0.02 0.03 0.02 0.03 0.03 0.03 0.03 0.03 0.03 0.03 0.03 0.04 0.05 0.04 0.03 0.02 0.02 0.02 0.03 0.04 0.04 0.03
0.00 0.00 0.00 0.01 0.00 0.00 0.01 0.02 0.01 0.00 0.00 0.00 0.00 0.00 0.00 0.00 0.00 0.01 0.00 0.00 0.00 0.00 0.01 0.00 0.01 0.01 0.01 0.03 0.03 0.03 0.03 0.02 0.03 0.03 0.03 0.03 0.04 0.04 0.04 0.05 0.04 0.03 0.02 0.02 0.03 0.03 0.03 0.05 0.04
0.00 0.00 0.00 0.00 0.00 0.00 0.02 0.04 0.01 0.00 0.00 0.00 0.00 0.00 0.00 0.00 0.00 0.00 0.00 0.00 0.01 0.01 0.01 0.00 0.01 0.01 0.01 0.03 0.05 0.06 0.05 0.04 0.02 0.02 0.03 0.03 0.03 0.03 0.04 0.04 0.05 0.05 0.04 0.03 0.03 0.05 0.05 0.04 0.04
0.00 0.00 0.00 0.00 0.00 0.00 0.01 0.03 0.01 0.00 0.00 0.00 0.01 0.00 0.00 0.00 0.00 0.00 0.00 0.01 0.00 0.00 0.00 0.00 0.01 0.01 0.01 0.02 0.04 0.06 0.06 0.04 0.02 0.03 0.04 0.04 0.03 0.02 0.03 0.05 0.05 0.05 0.05 0.04 0.04 0.07 0.07 0.05 0.04
0.00 0.00 0.00 0.00 0.00 0.00 0.00 0.02 0.01 0.01 0.01 0.01 0.02 0.01 0.00 0.00 0.00 0.00 0.00 0.01 0.01 0.00 0.00 0.01 0.01 0.01 0.01 0.02 0.02 0.04 0.04 0.04 0.03 0.03 0.05 0.05 0.05 0.05 0.04 0.05 0.04 0.03 0.04 0.05 0.05 0.06 0.07 0.06 0.05
0.00 0.00 0.00 0.00 0.00 0.00 0.01 0.03 0.01 0.01 0.01 0.00 0.02 0.02 0.01 0.00 0.00 0.00 0.01 0.01 0.01 0.00 0.00 0.01 0.01 0.01 0.02 0.03 0.03 0.04 0.04 0.03 0.02 0.02 0.03 0.04 0.04 0.04 0.03 0.03 0.03 0.03 0.03 0.04 0.05 0.05 0.07 0.08 0.07
0.00 0.00 0.00 0.00 0.00 0.01 0.00 0.01 0.01 0.01 0.01 0.00 0.01 0.02 0.01 0.00 0.00 0.01 0.01 0.02 0.01 0.00 0.00 0.01 0.01 0.02 0.02 0.02 0.03 0.03 0.02 0.02 0.02 0.04 0.04 0.05 0.04 0.04 0.03 0.03 0.02 0.03 0.03 0.04 0.06 0.06 0.07 0.07 0.06
0.00 0.00 0.00 0.00 0.00 0.01 0.01 0.01 0.01 0.01 0.00 0.00 0.01 0.02 0.01 0.01 0.00 0.00 0.01 0.02 0.01 0.00 0.00 0.01 0.01 0.02 0.01 0.02 0.01 0.01 0.02 0.03 0.04 0.04 0.07 0.07 0.04 0.04 0.04 0.02 0.02 0.02 0.03 0.04 0.06 0.05 0.04 0.04 0.04
0.00 0.00 0.01 0.01 0.02 0.01 0.00 0.00 0.00 0.00 0.00 0.00 0.00 0.01 0.01 0.00 0.00 0.00 0.01 0.01 0.01 0.00 0.00 0.01 0.01 0.01 0.01 0.02 0.01 0.01 0.01 0.02 0.03 0.05 0.05 0.05 0.04 0.04 0.02 0.02 0.02 0.02 0.02 0.02 0.03 0.04 0.04 0.04 0.04
0.00 0.00 0.01 0.01 0.02 0.01 0.00 0.00 0.00 0.00 0.00 0.00 0.01 0.01 0.01 0.00 0.00 0.01 0.01 0.01 0.01 0.00 0.00 0.01 0.01 0.01 0.01 0.02 0.02 0.01 0.01 0.02 0.03 0.03 0.04 0.05 0.04 0.03 0.04 0.04 0.04 0.03 0.03 0.01 0.02 0.03 0.04 0.04 0.04
0.00 0.00 0.00 0.00 0.01 0.01 0.00 0.00 0.00 0.00 0.00 0.00 0.01 0.02 0.03 0.01 0.00 0.01 0.01 0.01 0.01 0.00 0.00 0.01 0.01 0.02 0.02 0.01 0.01 0.01 0.01 0.01 0.02 0.02 0.03 0.04 0.03 0.03 0.03 0.04 0.05 0.05 0.04 0.02 0.02 0.03 0.03 0.04 0.05
0.00 0.00 0.00 0.00 0.01 0.01 0.00 0.01 0.01 0.01 0.01 0.00 0.00 0.01 0.03 0.02 0.01 0.01 0.02 0.02 0.01 0.00 0.00 0.00 0.01 0.02 0.02 0.02 0.01 0.01 0.01 0.01 0.02 0.01 0.02 0.02 0.03 0.04 0.02 0.03 0.03 0.03 0.03 0.02 0.02 0.03 0.04 0.03 0.04
0.00 0.00 0.00 0.00 0.01 0.01 0.01 0.01 0.00 0.00 0.00 0.00 0.01 0.01 0.01 0.03 0.02 0.01 0.02 0.02 0.02 0.01 0.00 0.01 0.01 0.02 0.02 0.02 0.02 0.01 0.01 0.01 0.01 0.02 0.02 0.02 0.02 0.03 0.03 0.02 0.02 0.03 0.02 0.01 0.02 0.03 0.03 0.02 0.03
0.00 0.00 0.00 0.00 0.00 0.01 0.01 0.00 0.00 0.00 0.00 0.00 0.01 0.01 0.01 0.03 0.05 0.02 0.02 0.03 0.02 0.01 0.01 0.01 0.02 0.02 0.02 0.01 0.02 0.02 0.01 0.01 0.02 0.03 0.03 0.03 0.03 0.02 0.02 0.02 0.02 0.01 0.01 0.01 0.02 0.03 0.02 0.01 0.02
MSLP
1006.57 1007.22 1008.03 1008.91 1009.75 1010.46 1010.96 1011.23 1011.27 1011.14 1010.93 1010.72 1010.57 1010.51 1010.55 1010.64 1010.73 1010.76 1010.71 1010.59 1010.43 1010.28 1010.22 1010.27 1010.45 1010.72 1011.03 1011.29 1011.45 1011.46 1011.33 1011.08 1010.78 1010.50 1010.30 1010.20 1010.21 1010.29 1010.41 1010.50 1010.55 1010.54 1010.51 1010.49 1010.52 1010.64 1010.84 1011.12 1011.44
1006.82 1007.58 1008.44 1009.31 1010.07 1010.65 1010.99 1011.09 1010.99 1010.76 1010.48 1010.24 1010.10 1010.06 1010.13 1010.23 1010.32 1010.34 1010.28 1010.14 1009.98 1009.86 1009.84 1009.96 1010.22 1010.58 1010.97 1011.30 1011.51 1011.56 1011.44 1011.19 1010.88 1010.59 1010.37 1010.26 1010.25 1010.31 1010.40 1010.47 1010.48 1010.44 1010.38 1010.34 1010.36 1010.47 1010.70 1011.03 1011.40
1007.24 1008.07 1008.94 1009.74 1010.38 1010.80 1010.97 1010.90 1010.65 1010.31 1009.97 1009.71 1009.57 1009.56 1009.64 1009.75 1009.84 1009.85 1009.77 1009.62 1009.47 1009.37 1009.40 1009.58 1009.92 1010.35 1010.81 1011.21 1011.48 1011.56 1011.47 1011.24 1010.93 1010.64 1010.41 1010.28 1010.25 1010.28 1010.34 1010.36 1010.33 1010.26 1010.17 1010.10 1010.12 1010.25 1010.51 1010.88 1011.31
1007.77 1008.64 1009.48 1010.19 1010.69 1010.93 1010.92 1010.70 1010.32 1009.90 1009.52 1009.24 1009.11 1009.10 1009.18 1009.29 1009.36 1009.34 1009.24 1009.09 1008.94 1008.87 1008.94 1009.17 1009.56 1010.06 1010.58 1011.04 1011.35 1011.47 1011.42 1011.21 1010.93 1010.64 1010.41 1010.27 1010.21 1010.21 1010.23 1010.21 1010.15 1010.04 1009.92 1009.85 1009.87 1010.02 1010.31 1010.72 1011.21
1008.37 1009.23 1010.00 1010.60 1010.95 1011.03 1010.87 1010.52 1010.05 1009.58 1009.17 1008.89 1008.76 1008.76 1008.83 1008.91 1008.95 1008.90 1008.78 1008.61 1008.47 1008.42 1008.52 1008.79 1009.22 1009.76 1010.31 1010.80 1011.14 1011.30 1011.28 1011.11 1010.86 1010.59 1010.37 1010.23 1010.16 1010.13 1010.11 1010.06 1009.97 1009.84 1009.72 1009.64 1009.67 1009.83 1010.15 1010.59 1011.11
1008.94 1009.75 1010.43 1010.89 1011.10 1011.05 1010.77 1010.34 1009.84 1009.36 1008.96 1008.70 1008.57 1008.56 1008.61 1008.65 1008.65 1008.56 1008.41 1008.24 1008.10 1008.07 1008.18 1008.48 1008.92 1009.47 1010.03 1010.53 1010.88 1011.06 1011.07 1010.94 1010.72 1010.50 1010.30 1010.17 1010.10 1010.06 1010.03 1009.96 1009.85 1009.72 1009.59 1009.52 1009.56 1009.73 1010.06 1010.52 1011.05
1009.37 1010.10 1010.64 1010.97 1011.05 1010.91 1010.58 1010.13 1009.65 1009.20 1008.85 1008.62 1008.52 1008.49 1008.51 1008.52 1008.47 1008.35 1008.18 1008.00 1007.87 1007.85 1007.98 1008.27 1008.71 1009.24 1009.78 1010.25 1010.59 1010.78 1010.81 1010.71 1010.54 1010.36 1010.21 1010.11 1010.05 1010.03 1010.00 1009.93 1009.82 1009.69 1009.57 1009.51 1009.56 1009.74 1010.07 1010.52 1011.04
1009.61 1010.20 1010.61 1010.80 1010.78 1010.57 1010.24 1009.83 1009.41 1009.05 1008.77 1008.60 1008.52 1008.50 1008.49 1008.45 1008.36 1008.22 1008.04 1007.86 1007.75 1007.75 1007.88 1008.17 1008.58 1009.07 1009.56 1009.98 1010.30 1010.47 1010.52 1010.45 1010.33 1010.21 1010.11 1010.06 1010.04 1010.04 1010.03 1009.98 1009.90 1009.78 1009.68 1009.63 1009.68 1009.85 1010.16 1010.59 1011.08
1009.63 1010.06 1010.31 1010.38 1010.28 1010.05 1009.75 1009.41 1009.10 1008.85 1008.67 1008.57 1008.52 1008.49 1008.46 1008.39 1008.28 1008.12 1007.95 1007.80 1007.71 1007.73 1007.88 1008.15 1008.52 1008.95 1009.38 1009.75 1010.02 1010.17 1010.22 1010.19 1010.12 1010.06 1010.02 1010.02 1010.06 1010.11 1010.13 1010.12 1010.06 1009.97 1009.89 1009.85 1009.90 1010.06 1010.35 1010.73 1011.18
1009.45 1009.72 1009.82 1009.77 1009.62 1009.40 1009.15 1008.92 1008.73 1008.59 1008.51 1008.47 1008.44 1008.42 1008.37 1008.28 1008.15 1008.00 1007.85 1007.74 1007.69 1007.75 1007.91 1008.17 1008.51 1008.88 1009.24 1009.55 1009.77 1009.91 1009.96 1009.95 1009.93 1009.92 1009.95 1010.02 1010.11 1010.21 1010.29 1010.32 1010.30 1010.25 1010.19 1010.17 1010.22 1010.36 1010.62 1010.96 1011.36
1009.17 1009.27 1009.24 1009.11 1008.92 1008.72 1008.54 1008.41 1008.33 1008.30 1008.29 1008.29 1008.28 1008.24 1008.17 1008.06 1007.93 1007.80 1007.69 1007.64 1007.65 1007.75 1007.93 1008.20 1008.51 1008.84 1009.14 1009.40 1009.58 1009.69 1009.75 1009.76 1009.78 1009.83 1009.91 1010.03 1010.19 1010.35 1010.48 1010.57 1010.60 1010.60 1010.58 1010.58 1010.63 1010.76 1010.99 1011.29 1011.65
1008.87 1008.85 1008.72 1008.52 1008.32 1008.15 1008.04 1007.99 1007.99 1008.02 1008.05 1008.05 1008.03 1007.96 1007.86 1007.74 1007.61 1007.51 1007.46 1007.46 1007.54 1007.70 1007.92 1008.20 1008.51 1008.81 1009.08 1009.30 1009.46 1009.56 1009.61 1009.65 1009.70 1009.78 1009.90 1010.08 1010.28 1010.50 1010.70 1010.85 1010.95 1011.01 1011.04 1011.07 1011.13 1011.26 1011.46 1011.74 1012.07
1008.67 1008.56 1008.36 1008.14 1007.95 1007.81 1007.75 1007.74 1007.78 1007.82 1007.83 1007.80 1007.72 1007.60 1007.46 1007.32 1007.20 1007.13 1007.14 1007.21 1007.36 1007.58 1007.86 1008.16 1008.48 1008.79 1009.05 1009.27 1009.42 1009.52 1009.58 1009.63 1009.69 1009.79 1009.94 1010.15 1010.40 1010.67 1010.93 1011.16 1011.34 1011.47 1011.56 1011.63 1011.72 1011.86 1012.06 1012.32 1012.63
1008.62 1008.47 1008.26 1008.05 1007.87 1007.77 1007.72 1007.73 1007.74 1007.73 1007.68 1007.56 1007.40 1007.20 1007.00 1006.84 1006.73 1006.70 1006.76 1006.90 1007.12 1007.41 1007.74 1008.09 1008.44 1008.77 1009.06 1009.29 1009.46 1009.58 1009.65 1009.70 1009.77 1009.87 1010.03 1010.25 1010.52 1010.84 1011.17 1011.48 1011.74 1011.96 1012.13 1012.27 1012.40 1012.56 1012.76 1013.01 1013.32
1008.72 1008.59 1008.40 1008.22 1008.08 1008.00 1007.96 1007.92 1007.87 1007.76 1007.58 1007.35 1007.07 1006.79 1006.53 1006.35 1006.25 1006.26 1006.37 1006.58 1006.86 1007.21 1007.59 1007.99 1008.39 1008.76 1009.10 1009.37 1009.58 1009.72 1009.81 1009.87 1009.93 1010.02 1010.16 1010.38 1010.67 1011.02 1011.41 1011.80 1012.16 1012.48 1012.74 1012.95 1013.13 1013.31 1013.52 1013.77 1014.07
1008.94 1008.85 1008.72 1008.60 1008.50 1008.43 1008.36 1008.25 1008.09 1007.84 1007.52 1007.14 1006.74 1006.37 1006.07 1005.87 1005.80 1005.85 1006.02 1006.28 1006.62 1007.01 1007.44 1007.89 1008.34 1008.76 1009.15 1009.49 1009.75 1009.93 1010.05 1010.11 1010.16 1010.22 1010.33 1010.53 1010.83 1011.20 1011.65 1012.12 1012.58 1012.99 1013.34 1013.63 1013.86 1014.07 1014.28 1014.53 1014.83
1009.20 1009.17 1009.12 1009.06 1009.01 1008.94 1008.82 1008.62 1008.32 1007.91 1007.42 1006.90 1006.38 1005.94 1005.62 1005.43 1005.40 1005.50 1005.73 1006.04 1006.43 1006.86 1007.32 1007.80 1008.28 1008.76 1009.22 1009.62 1009.94 1010.18 1010.32 1010.40 1010.43 1010.46 1010.55 1010.72 1011.00 1011.40 1011.88 1012.43 1012.97 1013.47 1013.91 1014.26 1014.54 1014.77 1014.99 1015.23 1015.51
1009.40 1009.45 1009.48 1009.51 1009.50 1009.42 1009.24 1008.93 1008.47 1007.90 1007.25 1006.59 1005.98 1005.50 1005.18 1005.04 1005.07 1005.24 1005.54 1005.90 1006.32 1006.76 1007.24 1007.73 1008.24 1008.76 1009.27 1009.74 1010.13 1010.42 1010.61 1010.70 1010.72 1010.74 1010.79 1010.94 1011.20 1011.61 1012.12 1012.71 1013.32 1013.89 1014.40 1014.80 1015.11 1015.36 1015.57 1015.79 1016.05
1009.51 1009.64 1009.76 1009.86 1009.88 1009.79 1009.54 1009.11 1008.50 1007.76 1006.97 1006.20 1005.53 1005.04 1004.76 1004.69 1004.82 1005.09 1005.45 1005.87 1006.31 1006.76 1007.22 1007.70 1008.22 1008.76 1009.30 1009.82 1010.28 1010.63 1010.87 1010.99 1011.03 1011.03 1011.06 1011.19 1011.44 1011.83 1012.35 1012.97 1013.62 1014.23 1014.77 1015.21 1015.53 1015.78 1015.98 1016.18 1016.42
1009.52 1009.72 1009.93 1010.10 1010.16 1010.05 1009.72 1009.17 1008.42 1007.53 1006.61 1005.75 1005.06 1004.59 1004.38 1004.42 1004.66 1005.04 1005.49 1005.96 1006.41 1006.84 1007.27 1007.72 1008.21 1008.75 1009.31 1009.87 1010.37 1010.79 1011.08 1011.25 1011.31 1011.33 1011.36 1011.46 1011.69 1012.07 1012.59 1013.20 1013.86 1014.48 1015.03 1015.47 1015.79 1016.01 1016.19 1016.37 1016.59
1009.46 1009.74 1010.04 1010.27 1010.36 1010.23 1009.83 1009.16 1008.28 1007.25 1006.23 1005.31 1004.61 1004.20 1004.08 1004.24 1004.61 1005.11 1005.65 1006.16 1006.62 1007.03 1007.41 1007.80 1008.24 1008.74 1009.29 1009.87 1010.41 1010.88 1011.24 1011.46 1011.57 1011.62 1011.66 1011.76 1011.98 1012.34 1012.83 1013.42 1014.04 1014.65 1015.17 1015.58 1015.88 1016.08 1016.24 1016.39 1016.60
1009.41 1009.79 1010.17 1010.47 1010.58 1010.42 1009.96 1009.18 1008.18 1007.04 1005.92 1004.96 1004.27 1003.91 1003.90 1004.18 1004.68 1005.29 1005.91 1006.47 1006.93 1007.31 1007.63 1007.94 1008.31 1008.75 1009.27 1009.84 1010.41 1010.93 1011.34 1011.63 1011.80 1011.89 1011.96 1012.07 1012.28 1012.61 1013.06 1013.61 1014.18 1014.74 1015.21 1015.58 1015.84 1016.01 1016.14 1016.29 1016.50
1009.46 1009.92 1010.40 1010.75 1010.89 1010.71 1010.18 1009.32 1008.21 1006.98 1005.78 1004.79 1004.10 1003.79 1003.86 1004.25 1004.86 1005.57 1006.26 1006.86 1007.32 1007.65 1007.91 1008.14 1008.43 1008.80 1009.27 1009.81 1010.39 1010.93 1011.40 1011.74 1011.98 1012.12 1012.24 1012.37 1012.57 1012.88 1013.29 1013.77 1014.29 1014.78 1015.19 1015.51 1015.72 1015.86 1015.97 1016.11 1016.32
1009.65 1010.21 1010.76 1011.18 1011.33 1011.14 1010.56 1009.63 1008.43 1007.11 1005.86 1004.83 1004.14 1003.87 1003.99 1004.46 1005.15 1005.93 1006.67 1007.28 1007.74 1008.04 1008.23 1008.39 1008.59 1008.88 1009.29 1009.79 1010.35 1010.91 1011.41 1011.81 1012.10 1012.30 1012.46 1012.62 1012.82 1013.11 1013.48 1013.91 1014.35 1014.77 1015.13 1015.39 1015.57 1015.68 1015.78 1015.91 1016.14
1010.00 1010.64 1011.25 1011.71 1011.89 1011.68 1011.07 1010.08 1008.82 1007.45 1006.15 1005.09 1004.40 1004.13 1004.28 1004.78 1005.51 1006.32 1007.08 1007.71 1008.15 1008.41 1008.55 1008.65 1008.78 1009.00 1009.34 1009.80 1010.33 1010.88 1011.39 1011.82 1012.16 1012.41 1012.60 1012.78 1013.00 1013.27 1013.60 1013.98 1014.38 1014.74 1015.05 1015.27 1015.42 1015.52 1015.61 1015.74 1015.97
1010.46 1011.15 1011.81 1012.29 1012.47 1012.26 1011.63 1010.62 1009.33 1007.93 1006.61 1005.53 1004.83 1004.55 1004.69 1005.18 1005.90 1006.70 1007.46 1008.07 1008.49 1008.73 1008.84 1008.89 1008.97 1009.13 1009.42 1009.82 1010.31 1010.84 1011.34 1011.79 1012.14 1012.42 1012.64 1012.84 1013.06 1013.32 1013.64 1013.99 1014.35 1014.68 1014.96 1015.16 1015.30 1015.40 1015.49 1015.63 1015.85
1010.97 1011.67 1012.33 1012.80 1012.98 1012.76 1012.12 1011.12 1009.85 1008.47 1007.16 1006.09 1005.37 1005.07 1005.17 1005.62 1006.29 1007.04 1007.76 1008.34 1008.74 1008.96 1009.05 1009.08 1009.13 1009.26 1009.50 1009.86 1010.30 1010.79 1011.27 1011.70 1012.05 1012.33 1012.56 1012.77 1013.00 1013.26 1013.56 1013.91 1014.26 1014.59 1014.86 1015.07 1015.22 1015.33 1015.44 1015.58 1015.80
1011.44 1012.09 1012.70 1013.13 1013.28 1013.05 1012.44 1011.48 1010.27 1008.95 1007.70 1006.66 1005.95 1005.63 1005.68 1006.06 1006.64 1007.32 1007.96 1008.48 1008.85 1009.06 1009.15 1009.18 1009.23 1009.35 1009.57 1009.89 1010.30 1010.74 1011.17 1011.57 1011.89 1012.16 1012.38 1012.59 1012.81 1013.08 1013.39 1013.74 1014.10 1014.45 1014.75 1015.00 1015.18 1015.32 1015.44 1015.59 1015.80
1011.77 1012.32 1012.84 1013.19 1013.28 1013.06 1012.49 1011.61 1010.51 1009.31 1008.16 1007.20 1006.53 1006.20 1006.19 1006.48 1006.95 1007.51 1008.05 1008.50 1008.83 1009.02 1009.12 1009.17 1009.24 1009.38 1009.60 1009.91 1010.28 1010.68 1011.07 1011.41 1011.70 1011.93 1012.13 1012.32 1012.55 1012.82 1013.14 1013.51 1013.90 1014.29 1014.64 1014.93 1015.17 1015.35 1015.51 1015.67 1015.87
1011.92 1012.33 1012.70 1012.95 1012.98 1012.76 1012.24 1011.48 1010.53 1009.50 1008.52 1007.68 1007.07 1006.75 1006.70 1006.88 1007.23 1007.66 1008.08 1008.43 1008.69 1008.86 1008.97 1009.06 1009.17 1009.34 1009.58 1009.90 1010.25 1010.62 1010.97 1011.26 1011.50 1011.70 1011.86 1012.04 1012.25 1012.52 1012.86 1013.25 1013.68 1014.11 1014.52 1014.87 1015.17 1015.40 1015.60 1015.79 1015.99
Thickness
5814 5817 5817 5804 5778 5763 5757 5766 5775 5774 5778 5786 5788 5783 5772 5763 5753 5742 5763 5776 5777 5774 5769 5766 5764 5763 5762 5762 5761 5760 5759 5759 5758 5758 5757 5757 5756 5756 5756 5756 5756 5756 5756 5756 5757 5757 5757 5757 5757
5816 5820 5809 5791 5764 5748 5752 5767 5769 5774 5782 5789 5788 5783 5773 5765 5770 5765 5768 5774 5776 5774 5768 5764 5761 5760 5759 5758 5758 5757 5756 5756 5755 5755 5754 5754 5753 5753 5753 5753 5753 5753 5753 5753 5753 5754 5754 5754 5754
5816 5817 5795 5779 5764 5753 5753 5769 5773 5781 5789 5787 5781 5779 5770 5763 5769 5767 5771 5775 5775 5772 5766 5761 5759 5758 5757 5756 5755 5754 5753 5752 5752 5751 5751 5750 5750 5750 5750 5750 5750 5750 5750 5750 5750 5751 5751 5751 5751
5813 5803 5792 5772 5759 5767 5770 5775 5780 5778 5783 5786 5781 5769 5768 5774 5772 5772 5776 5776 5772 5769 5765 5759 5757 5755 5754 5753 5752 5751 5750 5749 5749 5749 5748 5747 5747 5747 5747 5747 5747 5747 5747 5747 5747 5747 5747 5748 5748
5809 5789 5770 5760 5761 5772 5780 5784 5784 5775 5775 5779 5776 5762 5758 5772 5777 5776 5775 5774 5769 5767 5763 5758 5755 5753 5752 5750 5749 5748 5747 5746 5746 5746 5745 5745 5744 5744 5744 5743 5743 5744 5743 5743 5743 5744 5744 5744 5745
5791 5783 5759 5750 5758 5771 5780 5785 5783 5775 5774 5777 5773 5762 5758 5772 5772 5772 5773 5771 5769 5765 5762 5757 5754 5752 5750 5749 5747 5746 5745 5744 5743 5743 5742 5741 5741 5740 5740 5740 5740 5740 5740 5740 5740 5740 5740 5741 5741
5782 5771 5758 5757 5757 5763 5775 5785 5778 5773 5770 5773 5776 5760 5758 5767 5771 5773 5772 5769 5767 5765 5761 5757 5754 5751 5749 5747 5745 5744 5743 5742 5741 5740 5739 5738 5738 5737 5737 5737 5737 5737 5736 5736 5736 5736 5737 5737 5738
5794 5775 5762 5759 5756 5759 5776 5781 5780 5775 5769 5780 5779 5760 5754 5764 5772 5772 5770 5767 5765 5763 5760 5757 5754 5751 5749 5746 5744 5742 5741 5740 5738 5738 5737 5736 5736 5734 5734 5734 5733 5733 5733 5733 5733 5733 5733 5734 5735
5797 5766 5752 5759 5759 5763 5777 5774 5777 5782 5776 5775 5776 5771 5769 5772 5772 5767 5762 5761 5759 5758 5757 5756 5754 5751 5749 5746 5743 5741 5739 5738 5737 5735 5735 5734 5734 5732 5731 5731 5730 5730 5730 5729 5729 5729 5730 5731 5731
5784 5756 5758 5773 5776 5772 5775 5773 5775 5772 5766 5765 5767 5770 5772 5769 5766 5760 5756 5753 5752 5752 5753 5754 5752 5750 5747 5745 5742 5740 5738 5737 5735 5734 5733 5732 5732 5730 5729 5727 5727 5727 5726 5726 5726 5726 5727 5727 5728
5782 5765 5772 5779 5783 5780 5774 5773 5777 5766 5756 5761 5761 5763 5766 5764 5762 5758 5756 5753 5752 5752 5751 5751 5750 5749 5746 5743 5740 5738 5737 5735 5734 5733 5732 5730 5729 5728 5726 5725 5724 5724 5724 5724 5724 5724 5724 5725 5726
5779 5778 5780 5780 5782 5778 5773 5772 5768 5765 5763 5772 5772 5769 5765 5761 5759 5757 5754 5753 5752 5750 5749 5749 5749 5746 5744 5741 5738 5736 5734 5733 5732 5731 5730 5728 5727 5726 5724 5723 5722 5722 5722 5722 5722 5722 5722 5723 5723
5774 5774 5779 5782 5781 5778 5775 5769 5765 5764 5772 5775 5773 5768 5762 5760 5759 5758 5757 5754 5751 5747 5746 5746 5746 5743 5741 5739 5736 5734 5732 5730 5729 5728 5727 5726 5725 5724 5722 5721 5720 5719 5719 5719 5719 5718 5719 5718 5718
5775 5775 5776 5778 5776 5775 5767 5765 5763 5763 5771 5768 5766 5762 5761 5759 5758 5755 5753 5751 5749 5746 5745 5744 5743 5741 5738 5736 5734 5731 5729 5728 5726 5725 5724 5724 5723 5722 5720 5718 5717 5717 5716 5716 5715 5715 5714 5713 5712
5778 5767 5766 5771 5772 5772 5766 5751 5756 5766 5768 5761 5760 5760 5759 5758 5756 5753 5752 5750 5748 5746 5744 5741 5740 5738 5735 5732 5730 5728 5726 5725 5723 5722 5722 5721 5721 5719 5717 5715 5714 5713 5713 5712 5711 5710 5710 5709 5708
5768 5757 5747 5763 5769 5770 5755 5735 5755 5767 5762 5754 5755 5756 5754 5754 5754 5753 5753 5750 5748 5745 5742 5739 5738 5735 5732 5729 5727 5725 5723 5721 5720 5719 5719 5718 5718 5716 5714 5712 5711 5710 5710 5708 5707 5705 5704 5703 5703
5752 5742 5744 5754 5768 5766 5753 5738 5752 5763 5759 5752 5752 5754 5752 5750 5750 5751 5751 5748 5746 5743 5740 5736 5734 5731 5728 5726 5723 5721 5719 5718 5716 5715 5715 5714 5714 5713 5711 5710 5708 5707 5706 5705 5704 5701 5700 5698 5698
5742 5745 5746 5747 5761 5760 5748 5743 5751 5758 5756 5751 5750 5750 5749 5746 5746 5748 5747 5745 5743 5741 5738 5734 5730 5728 5725 5722 5719 5717 5715 5713 5712 5711 5711 5710 5710 5709 5708 5707 5705 5704 5702 5700 5699 5697 5697 5696 5695
5754 5748 5744 5749 5762 5754 5745 5742 5745 5753 5752 5748 5747 5746 5744 5743 5746 5746 5744 5741 5738 5736 5733 5730 5726 5724 5721 5717 5713 5710 5708 5708 5707 5707 5706 5706 5706 5705 5704 5703 5702 5700 5698 5697 5696 5694 5692 5691 5692
5749 5740 5740 5748 5758 5751 5742 5740 5746 5750 5748 5748 5745 5743 5742 5741 5740 5739 5738 5736 5733 5730 5729 5727 5724 5721 5718 5714 5712 5709 5706 5705 5704 5704 5703 5702 5702 5701 5700 5699 5697 5696 5694 5693 5692 5691 5688 5688 5689
5743 5739 5739 5739 5747 5749 5738 5730 5738 5745 5748 5747 5747 5745 5744 5740 5736 5734 5732 5731 5728 5726 5725 5724 5721 5718 5715 5713 5710 5708 5704 5702 5700 5699 5698 5699 5698 5698 5697 5695 5694 5693 5691 5689 5689 5688 5686 5684 5685
5733 5747 5744 5737 5727 5724 5730 5709 5727 5737 5736 5738 5739 5739 5739 5738 5736 5732 5728 5726 5724 5723 5723 5721 5718 5715 5713 5711 5707 5702 5698 5694 5695 5695 5695 5696 5695 5694 5693 5692 5691 5690 5689 5687 5687 5686 5685 5683 5681
5738 5746 5740 5734 5724 5720 5728 5717 5723 5733 5726 5729 5733 5734 5734 5735 5732 5728 5725 5723 5722 5720 5719 5717 5715 5712 5710 5707 5704 5700 5696 5694 5694 5693 5692 5691 5691 5690 5690 5689 5688 5687 5686 5685 5685 5684 5683 5682 5680
5743 5738 5734 5731 5720 5703 5724 5719 5711 5723 5726 5728 5731 5731 5730 5730 5728 5725 5722 5720 5717 5715 5714 5712 5709 5707 5705 5703 5701 5698 5694 5692 5690 5688 5687 5686 5686 5686 5686 5686 5685 5684 5684 5683 5682 5682 5681 5680 5679
5734 5717 5701 5700 5697 5705 5733 5721 5712 5729 5735 5732 5728 5727 5726 5725 5721 5718 5714 5712 5710 5708 5707 5705 5703 5701 5700 5699 5697 5695 5693 5690 5687 5685 5683 5682 5681 5681 5682 5682 5682 5681 5681 5681 5680 5679 5678 5678 5677
5724 5718 5695 5684 5692 5709 5722 5712 5715 5731 5733 5732 5728 5724 5721 5718 5715 5712 5710 5707 5705 5703 5701 5700 5698 5696 5696 5694 5693 5693 5691 5688 5686 5684 5682 5680 5679 5679 5679 5679 5678 5678 5678 5678 5677 5676 5676 5676 5675
5717 5716 5721 5705 5703 5699 5709 5711 5714 5724 5721 5719 5716 5714 5712 5710 5708 5706 5704 5703 5701 5698 5697 5696 5693 5692 5691 5690 5690 5688 5687 5685 5683 5682 5681 5678 5678 5677 5677 5676 5675 5675 5674 5674 5674 5673 5673 5673 5672
5722 5718 5710 5698 5685 5682 5699 5702 5698 5703 5705 5707 5706 5703 5701 5701 5702 5700 5698 5697 5695 5694 5693 5692 5690 5688 5687 5686 5685 5684 5683 5682 5680 5679 5677 5676 5675 5674 5673 5672 5672 5671 5671 5672 5671 5670 5669 5669 5669
5710 5707 5705 5701 5698 5682 5677 5686 5711 5705 5703 5700 5699 5697 5695 5692 5692 5694 5693 5692 5691 5690 5688 5686 5684 5683 5681 5680 5679 5678 5678 5677 5676 5674 5673 5672 5672 5670 5669 5669 5668 5668 5668 5668 5667 5666 5666 5665 5665
5712 5705 5699 5682 5684 5689 5680 5681 5711 5707 5702 5698 5694 5692 5690 5688 5686 5687 5687 5686 5685 5683 5682 5680 5679 5677 5675 5675 5674 5673 5672 5672 5670 5669 5668 5668 5667 5667 5666 5665 5664 5664 5664 5664 5663 5662 5662 5662 5661